Regional Weather Roundup
Issued by NWS Albany, NY

Home | Current Version | Previous Version | Graphics & Text | Print | Product List | Glossary Off
Versions: 1 2 3 4 5 6 7 8 9 10 11 12 13 14 15 16 17 18 19 20 21 22 23 24 25 26 27 28 29 30 31 32 33 34 35 36 37 38 39 40 41 42 43 44 45 46 47 48 49 50

000
ASUS41 KALY 221910
RWRALY

NEW YORK STATE HOURLY WEATHER ROUNDUP
NATIONAL WEATHER SERVICE ALBANY NY
200 PM EST SUN JAN 22 2017

NOTE: "FAIR" INDICATES FEW OR NO CLOUDS BELOW 12,000 FEET WITH NO
SIGNIFICANT WEATHER AND/OR NO OBSTRUCTIONS TO VISIBILITY.

NYZ032-033-038>043-046>054-057>066-NYZ062>081-082-084-222000-
EAST


CITY           SKY/WX    TMP DP  RH WIND       PRES   REMARKS
ALBANY         CLOUDY    42  38  85 N9        29.76F
GLENS FALLS    CLOUDY    40  37  89 CALM      29.79S FOG
POUGHKEEPSIE   CLOUDY    48  43  82 CALM      29.71R
NEWBURGH       CLOUDY    46  45  93 VRB5      29.72R
MONTGOMERY     CLOUDY    49  45  86 CALM      29.69S
WHITE PLAINS   PTSUNNY   51  45  79 E7        29.68F FOG
ISLIP          PTSUNNY   53  45  74 NE10      29.68F
NEW YORK CITY  CLOUDY    46  41  82 NE7       29.69F
CENTRAL PARK   CLOUDY    47  42  83 VRB7      29.71F
$$

NYZ005>009-017-018-044>046-055-056-222000-
CENTRAL


CITY           SKY/WX    TMP DP  RH WIND       PRES   REMARKS
FULTON         CLOUDY    47  41  80 N12       29.69F
SYRACUSE       PTSUNNY   50  43  77 NE7       29.68F
ROME           CLOUDY    50  44  80 E9        29.71F
ELMIRA         PTSUNNY   56  46  69 CALM      29.63F
BINGHAMTON     PTSUNNY   50  45  83 E3        29.65F
MONTICELLO     MOSUNNY   54  48  82 SE9       29.68F
$$

NYZ026>034-041>043-087-222000-
NORTH


CITY           SKY/WX    TMP DP  RH WIND       PRES   REMARKS
WATERTOWN      CLOUDY    40  37  89 NE14      29.75F WCI  32
FORT DRUM      NOT AVBL
OGDENSBURG     FAIR      40  32  74 NE14G20   29.82S WCI  32
MASSENA        CLOUDY    36  29  75 NE18      29.87F WCI  26
SARANAC LAKE   CLOUDY    33  31  92 NE9       29.75S WCI  25
PLATTSBURGH    CLOUDY    35  29  78 N14       29.86S WCI  26
$$

NYZ001>004-010>016-019>021-085-222000-
WEST


CITY           SKY/WX    TMP DP  RH WIND       PRES   REMARKS
NIAGARA FALLS  LGT RAIN  45  42  89 NE7       29.66F FOG
BUFFALO        RAIN      45  43  93 NE6       29.66F FOG
DUNKIRK        LGT RAIN  41  40  96 N7        29.64F FOG
JAMESTOWN        N/A     52  46  82 NE3       29.62F
WELLSVILLE     PTSUNNY   58  47  66 E3        29.64F
ROCHESTER      FOG       42  41  96 NE12      29.69F VSB 1/4
PENN YAN       MOSUNNY   53  45  74 VRB3      29.66F
$$

             KEY
       WCI = WIND CHILL INDEX
       VSB = VISIBILITY
       HX  = HEAT INDEX
$$



USA.gov is the U.S. government's official web portal to all federal, state and local government web resources and services.